TimePST,TemperatureF,Dew PointF,Humidity,Sea Level PressureIn,VisibilityMPH,Wind Direction,Wind SpeedMPH,Gust SpeedMPH,PrecipitationIn,Events,Conditions,WindDirDegrees,DateUTC
12:56 AM,55.0,30.0,38,30.38,10.0,East,9.2,-,N/A,,Clear,80,2014-01-15 08:56:00
1:56 AM,50.0,30.9,48,30.38,10.0,East,4.6,-,N/A,,Clear,80,2014-01-15 09:56:00
2:56 AM,53.1,30.0,41,30.38,10.0,ENE,5.8,-,N/A,,Clear,70,2014-01-15 10:56:00
3:56 AM,54.0,30.0,40,30.38,10.0,East,6.9,-,N/A,,Clear,90,2014-01-15 11:56:00
4:56 AM,46.9,30.0,52,30.39,10.0,Calm,Calm,-,N/A,,Clear,0,2014-01-15 12:56:00
5:56 AM,44.1,37.9,79,30.38,3.0,Calm,Calm,-,N/A,,Haze,0,2014-01-15 13:56:00
6:56 AM,43.0,37.0,80,30.38,4.0,Calm,Calm,-,N/A,,Haze,0,2014-01-15 14:56:00
7:56 AM,48.0,30.9,52,30.39,10.0,East,5.8,-,N/A,,Clear,90,2014-01-15 15:56:00
8:56 AM,48.9,35.1,59,30.40,10.0,Calm,Calm,-,N/A,,Clear,0,2014-01-15 16:56:00
9:07 AM,48.9,39.0,69,30.40,1.8,NNW,5.8,-,N/A,,Haze,330,2014-01-15 17:07:00
9:19 AM,51.1,39.0,63,30.40,3.0,NNW,4.6,-,N/A,,Haze,340,2014-01-15 17:19:00
9:56 AM,53.1,43.0,69,30.41,4.0,NW,4.6,-,N/A,,Haze,320,2014-01-15 17:56:00
10:56 AM,64.0,36.0,35,30.40,10.0,Calm,Calm,-,N/A,,Clear,0,2014-01-15 18:56:00
11:56 AM,60.1,39.0,46,30.37,6.0,NW,6.9,-,N/A,,Haze,310,2014-01-15 19:56:00
12:56 PM,60.1,37.9,44,30.34,8.0,NW,6.9,-,N/A,,Clear,310,2014-01-15 20:56:00
1:56 PM,57.9,46.0,65,30.32,7.0,NNW,3.5,-,N/A,,Clear,330,2014-01-15 21:56:00
2:56 PM,60.1,35.1,39,30.31,10.0,North,6.9,-,N/A,,Clear,350,2014-01-15 22:56:00
3:56 PM,57.0,37.0,47,30.31,7.0,NNW,8.1,-,N/A,,Clear,340,2014-01-15 23:56:00
4:56 PM,55.0,34.0,45,30.29,10.0,North,5.8,-,N/A,,Clear,360,2014-01-16 00:56:00
5:56 PM,50.0,35.1,57,30.29,9.0,North,4.6,-,N/A,,Clear,10,2014-01-16 01:56:00
6:56 PM,46.0,36.0,68,30.28,5.0,Calm,Calm,-,N/A,,Haze,0,2014-01-16 02:56:00
7:33 PM,46.9,39.0,74,30.28,1.5,Calm,Calm,-,N/A,,Haze,0,2014-01-16 03:33:00
7:40 PM,45.0,39.9,82,30.28,1.0,WNW,3.5,-,N/A,,Haze,300,2014-01-16 03:40:00
7:56 PM,44.1,41.0,89,30.29,1.0,NW,4.6,-,N/A,,Clear,310,2014-01-16 03:56:00
8:32 PM,45.0,42.1,90,30.29,2.0,NNW,4.6,-,N/A,,Clear,340,2014-01-16 04:32:00
8:44 PM,44.1,39.0,82,30.28,4.0,North,3.5,-,N/A,,Haze,360,2014-01-16 04:44:00
8:56 PM,46.0,37.0,71,30.28,6.0,NNE,6.9,-,N/A,,Haze,30,2014-01-16 04:56:00
9:56 PM,57.9,28.0,32,30.29,10.0,ENE,9.2,-,N/A,,Clear,70,2014-01-16 05:56:00
10:56 PM,60.1,27.0,28,30.28,10.0,ENE,12.7,-,N/A,,Clear,60,2014-01-16 06:56:00
11:56 PM,62.1,24.1,23,30.28,10.0,ENE,8.1,-,N/A,,Clear,70,2014-01-16 07:56:00